[[{"header":{"parameterUnit":"m.s-1","parameterCategory":1,"la1":30.2991,"la2":30.254,"lo1":-89.0895,"lo2":-89.0444,"dy":0.0017,"dx":0.0017,"nx":28,"ny":28,"refTime":"2024-08-12T21:00:00:Z","depth":0,"parameterNumber":2,"parameterNumberName":"U-component_of_WINDS"},"data":[0,0,0,0,0,0,0,0,0,0,0,0,0,0,0,0,0,0,0,0,0,0,0,0,0,0,0,0,0,0,0,0,0,0,0,0,0,0,0,0,0,0,0,0,0,0,0,0,0,0,0,0,0,0,0,0,0,0,4.3132,4.3132,0,4.3187,4.3188,4.3189,4.3072,4.3068,4.3064,4.3061,4.3121,4.3126,4.3131,0,0,0,0,0,0,0,0,0,0,0,0,0,4.2925,4.293,4.3132,4.3132,4.3133,4.3187,4.3188,4.3189,4.3072,4.3068,4.3063,4.3059,4.312,4.3126,4.3132,0,0,0,0,0,0,0,0,0,0,0,0,0,4.3002,4.2931,4.3131,4.3081,4.3077,4.3187,4.3188,4.3189,4.3073,4.3068,4.3062,4.3057,4.3118,4.3125,4.3133,4.3295,0,0,4.3156,4.316,0,0,0,0,0,0,0,0,4.2998,4.3009,4.3088,4.3085,4.3081,4.3117,4.3137,4.3225,4.3075,4.3075,4.306,4.3054,4.3125,4.3131,4.3154,4.3298,4.33,4.3157,4.3162,4.3165,4.3167,0,0,0,0,0,0,0,4.2992,4.3006,4.3154,4.3089,4.3085,4.3056,4.3061,4.3153,4.3131,4.3075,4.3066,4.3074,4.3122,4.3147,4.3155,4.3301,4.3157,4.3164,4.3169,4.3172,4.3577,4.3583,0,0,0,0,0,0,4.2993,4.3003,4.3152,4.3155,4.3024,4.3065,4.307,4.3111,4.313,4.3127,4.3079,4.3069,4.3137,4.3146,4.3157,4.3346,4.3165,4.3172,4.3177,4.3571,4.3578,4.3585,0,0,0,0,0,0,4.2989,4.3008,4.315,4.3077,4.3093,4.3074,4.3122,4.3115,4.3141,4.3133,4.3129,4.3109,4.3133,4.3146,4.326,4.3346,4.3176,4.3183,4.3564,4.3573,4.3582,4.3726,0,0,0,0,0,0,4.2984,4.3007,4.3068,4.3079,4.3097,4.3253,4.3127,4.312,4.3154,4.3141,4.3161,4.3158,4.3129,4.3249,4.3268,4.3354,4.3189,4.3556,4.3568,4.3579,4.3714,4.3739,4.3761,0,0,0,0,0,4.2977,4.3108,4.3072,4.3091,4.3173,4.3258,4.3268,4.3231,4.3161,4.3223,4.3217,4.3158,4.3334,4.3262,4.3282,4.3372,4.355,4.3565,4.3578,4.3703,4.3734,4.3761,0,0,0,0,0,0,4.311,4.3109,4.3068,4.3207,4.3233,4.3238,4.3314,4.3265,4.3313,4.3299,4.3251,4.3257,4.338,4.3387,4.3308,4.3528,4.343,4.3449,4.3519,4.3548,4.3572,4.3567,4.3195,0,0,0,0,0,4.3155,4.3223,4.3218,4.3341,4.3356,4.3333,4.3369,4.3337,4.3363,4.3374,4.3377,4.3405,4.3466,4.3508,4.3564,4.3714,4.3716,4.3785,4.3809,4.3828,4.3845,4.3923,4.3953,4.363,4.363,4.363,0,0,4.3249,4.3257,4.3303,4.3368,4.3384,4.3456,4.3343,4.3425,4.3477,4.3387,4.3494,4.3497,4.3525,4.3658,4.3716,4.3668,4.3934,4.3846,4.3862,4.3867,4.394,4.3971,4.3998,4.364,4.3638,4.3636,0,0,4.3457,4.3471,4.3573,4.3591,4.3617,4.36,4.3625,4.3637,4.3635,4.3742,4.3674,4.3737,4.3844,4.3865,4.3891,4.4105,4.4051,4.4125,4.4248,4.4325,4.435,4.4372,4.4447,4.4475,4.4141,4.4141,4.4142,0,4.3572,4.3676,4.3633,4.3717,4.3747,4.3666,4.3769,4.379,4.3833,4.3856,4.38,4.393,4.3944,4.4079,4.4131,4.4155,4.4181,4.4122,4.435,4.4372,4.4392,4.4462,4.4491,4.415,4.4149,4.4148,4.4147,0,4.3815,4.3888,4.3968,4.401,4.4048,4.4143,4.4112,4.4157,4.4122,4.4112,4.422,4.4233,4.4289,4.4319,4.4287,4.445,4.4418,4.4357,4.4258,4.4432,4.4497,4.4524,4.4162,4.4159,4.4157,4.4155,0,0,4.411,4.4124,4.4154,4.417,4.4192,4.4248,4.4337,4.439,4.4429,4.4462,4.4535,4.4626,4.4568,4.4597,4.4566,4.4634,4.48,4.4564,4.4564,4.4606,4.4978,4.5023,4.5055,4.4764,4.4769,4.4773,4.4975,0,4.4315,4.4467,4.4429,4.4581,4.4647,4.457,4.4648,4.4669,4.4662,4.4717,4.4708,4.4773,4.4693,4.4709,4.4773,4.4767,4.4874,4.4752,4.4832,4.4835,4.4826,4.509,4.5138,4.5328,4.5001,4.5005,4.5008,0,4.4575,4.4614,4.4772,4.478,4.4806,4.4877,4.4921,4.4975,4.4997,4.4986,4.5017,4.4973,4.506,4.4961,4.5081,4.4998,4.5029,4.5031,4.5037,4.5043,4.4932,4.5101,4.5388,4.5416,4.5048,4.5045,4.5042,0,4.4772,4.4865,4.497,4.4987,4.5,4.5051,4.5059,4.5075,4.5109,4.5148,4.5169,4.5219,4.5246,4.5285,4.5255,4.5185,4.538,4.5278,4.5373,4.5374,4.5417,4.5414,4.5711,4.5439,4.5438,4.5438,4.5437,0,4.5004,4.5103,4.5059,4.5124,4.5232,4.5187,4.5296,4.5295,4.531,4.5373,4.531,4.5371,4.5327,4.5385,4.5362,4.5464,4.5477,4.547,4.5463,4.5476,4.5476,4.5495,4.548,4.5445,4.5444,4.5442,4.5441,0,4.5243,4.5217,4.5327,4.5328,4.5331,4.5411,4.5412,4.5472,4.5459,4.5539,4.5556,4.5535,4.5599,4.5572,4.5641,4.5625,4.5755,4.5731,4.5747,4.574,4.5836,4.5827,4.6154,4.6194,4.5897,4.59,4.5903,0,4.5392,4.5466,4.5475,4.5512,4.5523,4.5585,4.5617,4.5576,4.5613,4.5642,4.5699,4.5757,4.58,4.5906,4.5897,4.5949,4.5924,4.6035,4.5932,4.5941,4.5924,4.592,4.5926,4.6056,4.606,4.6063,4.6065,0,4.566,4.5643,4.5692,4.5737,4.5778,4.5812,4.584,4.5874,4.5834,4.5878,4.5942,4.5976,4.6043,4.6101,4.6146,4.6154,4.6103,4.6097,4.6122,4.6135,4.6141,4.6137,4.5802,4.609,4.6088,4.6086,4.6084,4.6083,4.5857,4.5919,4.5933,4.599,4.6007,4.6034,4.6089,4.6082,4.6133,4.6184,4.6157,4.623,4.6248,4.6303,4.6318,4.6375,4.6331,4.6367,4.6376,4.6385,4.6397,4.6132,4.6383,4.6382,4.6381,4.6381,4.638,0,4.612,4.6125,4.6178,4.6218,4.6263,4.6209,4.6237,4.6278,4.6342,4.6363,4.6407,4.6479,4.6534,4.6529,4.6579,4.6626,4.6604,4.6641,4.6636,4.6639,4.6434,4.6407,4.6657,4.6657,4.6657,4.6657,4.6657,4.6657,4.6262,4.6362,4.6347,4.6453,4.6458,4.6528,4.6548,4.6573,4.6589,4.6671,4.6716,4.6711,4.6722,4.6772,4.682,4.6817,4.6838,4.6884,4.6872,4.6681,4.6653,4.6627,4.6601,4.6889,4.6889,4.7072,4.7073,4.7075]},{"header":{"parameterUnit":"m.s-1","parameterCategory":1,"la1":30.2991,"la2":30.254,"lo1":-89.0895,"lo2":-89.0444,"dy":0.0017,"dx":0.0017,"nx":28,"ny":28,"refTime":"2024-08-12T21:00:00:Z","depth":0,"parameterNumber":3,"parameterNumberName":"V-component_of_WINDS"},"data":[0,0,0,0,0,0,0,0,0,0,0,0,0,0,0,0,0,0,0,0,0,0,0,0,0,0,0,0,0,0,0,0,0,0,0,0,0,0,0,0,0,0,0,0,0,0,0,0,0,0,0,0,0,0,0,0,0,0,3.5778,3.578,0,3.5927,3.5929,3.5931,3.5942,3.594,3.5939,3.5937,3.6085,3.609,3.6095,0,0,0,0,0,0,0,0,0,0,0,0,0,3.5499,3.5504,3.5778,3.578,3.5782,3.5927,3.5929,3.5931,3.5942,3.594,3.5938,3.5936,3.6083,3.6089,3.6096,0,0,0,0,0,0,0,0,0,0,0,0,0,3.5631,3.5506,3.5778,3.5805,3.5809,3.5927,3.5929,3.5932,3.5943,3.594,3.5938,3.5935,3.6081,3.6089,3.6097,3.6196,0,0,3.6122,3.6125,0,0,0,0,0,0,0,0,3.5624,3.5642,3.5799,3.5803,3.5808,3.5914,3.5885,3.602,3.5943,3.5892,3.5937,3.5934,3.6029,3.6042,3.6075,3.6203,3.6209,3.6122,3.6127,3.6131,3.6133,0,0,0,0,0,0,0,3.5615,3.5635,3.5837,3.5801,3.5807,3.5808,3.5825,3.591,3.5972,3.5896,3.5897,3.5915,3.6031,3.6067,3.6078,3.6211,3.6122,3.613,3.6135,3.6138,3.6427,3.6429,0,0,0,0,0,0,3.5601,3.5628,3.5832,3.5841,3.5708,3.5816,3.5834,3.5882,3.5971,3.5983,3.5917,3.5915,3.6054,3.6069,3.6084,3.6205,3.6131,3.6139,3.6143,3.6424,3.6427,3.643,0,0,0,0,0,0,3.5595,3.5619,3.5826,3.5735,3.5762,3.5823,3.5877,3.5886,3.5922,3.5987,3.5998,3.5942,3.6053,3.6072,3.6168,3.621,3.6142,3.615,3.6421,3.6425,3.6429,3.6448,0,0,0,0,0,0,3.5587,3.5617,3.5656,3.5736,3.5766,3.591,3.588,3.5891,3.5937,3.5935,3.6014,3.6024,3.6052,3.6156,3.6176,3.622,3.6156,3.6417,3.6423,3.6428,3.6443,3.6452,3.6459,0,0,0,0,0,3.5577,3.5655,3.5658,3.5683,3.5817,3.5912,3.5929,3.5961,3.594,3.5979,3.6021,3.6022,3.6202,3.6165,3.6188,3.6235,3.6415,3.6421,3.6427,3.644,3.645,3.6459,0,0,0,0,0,0,3.5577,3.5665,3.567,3.5776,3.5837,3.5914,3.5964,3.5971,3.6038,3.6034,3.6069,3.6087,3.6181,3.6218,3.6176,3.6335,3.6306,3.6317,3.6308,3.6318,3.6326,3.6314,3.6163,0,0,0,0,0,3.5589,3.566,3.5734,3.582,3.585,3.5902,3.5945,3.5965,3.6028,3.6053,3.6102,3.6162,3.6232,3.6277,3.6345,3.6449,3.6466,3.6493,3.6501,3.6507,3.6515,3.6572,3.6584,3.6451,3.6451,3.6451,0,0,3.5615,3.5673,3.5715,3.5822,3.5871,3.5942,3.5923,3.6,3.6053,3.6064,3.6158,3.6196,3.6265,3.6365,3.6411,3.6398,3.6556,3.6515,3.6519,3.6524,3.6579,3.6592,3.6603,3.6455,3.6454,3.6454,0,0,3.5699,3.575,3.5828,3.5878,3.5953,3.5987,3.6005,3.6082,3.6108,3.6203,3.6213,3.6275,3.6396,3.6445,3.6485,3.6588,3.659,3.6609,3.6649,3.6704,3.6714,3.6724,3.6759,3.6771,3.6618,3.6618,3.6618,0,3.5721,3.5831,3.5866,3.5943,3.5988,3.6004,3.6082,3.6128,3.6221,3.6251,3.6236,3.6387,3.6435,3.6546,3.6572,3.6604,3.6625,3.6599,3.671,3.672,3.6729,3.6763,3.6777,3.662,3.6619,3.6619,3.6619,0,3.5854,3.593,3.5983,3.6074,3.6126,3.6202,3.6248,3.6296,3.6312,3.6347,3.6443,3.6501,3.6581,3.6609,3.6624,3.6722,3.6712,3.6703,3.6674,3.6743,3.6775,3.6789,3.6622,3.6621,3.6621,3.662,0,0,3.594,3.605,3.6069,3.611,3.6195,3.6253,3.633,3.641,3.645,3.6514,3.6578,3.668,3.6673,3.6719,3.674,3.6788,3.6864,3.6773,3.6775,3.6787,3.6974,3.6979,3.6993,3.6867,3.687,3.6872,3.6968,0,3.6032,3.6171,3.6205,3.6323,3.6392,3.6408,3.6475,3.6533,3.6569,3.6632,3.667,3.6741,3.6727,3.6754,3.6803,3.6844,3.6902,3.6838,3.6925,3.6928,3.6906,3.7011,3.7016,3.7104,3.6981,3.6983,3.6984,0,3.6157,3.6225,3.635,3.6426,3.6456,3.6516,3.6592,3.6653,3.6718,3.674,3.6792,3.6809,3.6888,3.6856,3.6965,3.6921,3.6958,3.6984,3.6988,3.6996,3.6959,3.7019,3.7132,3.7145,3.7005,3.7003,3.7002,0,3.6205,3.6328,3.6419,3.6454,3.6544,3.6586,3.6625,3.6689,3.6735,3.6801,3.683,3.6904,3.6944,3.7,3.7035,3.7009,3.714,3.7112,3.7159,3.7158,3.7184,3.7182,3.7303,3.7211,3.7211,3.7211,3.7211,0,3.6303,3.6379,3.6442,3.6497,3.6582,3.6621,3.6703,3.6742,3.6799,3.6861,3.688,3.6938,3.6982,3.7045,3.7073,3.7158,3.7176,3.7194,3.7201,3.7192,3.7189,3.7216,3.721,3.7215,3.7214,3.7213,3.7212,0,3.637,3.6416,3.6516,3.6594,3.6615,3.6674,3.674,3.6794,3.683,3.6909,3.6929,3.6986,3.7061,3.7103,3.7197,3.7216,3.731,3.7314,3.7288,3.729,3.7335,3.7329,3.7476,3.7496,3.7393,3.7393,3.7394,0,3.6429,3.6488,3.6573,3.6617,3.6657,3.6727,3.6775,3.6815,3.6863,3.6943,3.6987,3.7064,3.7127,3.7247,3.7295,3.7367,3.7372,3.7418,3.7382,3.7372,3.737,3.7366,3.7371,3.7424,3.7425,3.7425,3.7426,0,3.6527,3.6547,3.6615,3.6692,3.6748,3.681,3.6871,3.6905,3.6955,3.7008,3.7087,3.7136,3.7234,3.7309,3.7385,3.7424,3.7433,3.7437,3.7452,3.7442,3.7424,3.7433,3.7303,3.7433,3.7432,3.7432,3.7432,3.7431,3.6591,3.6644,3.6712,3.6787,3.6838,3.6894,3.6949,3.6992,3.7059,3.7143,3.7162,3.7244,3.7308,3.7412,3.7453,3.7517,3.7507,3.7529,3.7534,3.7538,3.7539,3.7416,3.7531,3.7531,3.753,3.753,3.753,0,3.6689,3.6734,3.6803,3.6888,3.6947,3.6953,3.7021,3.7069,3.7142,3.7202,3.7265,3.7355,3.7429,3.7483,3.7558,3.7598,3.7604,3.7617,3.7613,3.7621,3.7544,3.7523,3.7611,3.7611,3.7611,3.7611,3.761,3.761,3.6746,3.6836,3.6864,3.6978,3.7022,3.7104,3.7142,3.7194,3.7242,3.7342,3.7404,3.744,3.7498,3.7577,3.7644,3.7659,3.7684,3.7696,3.771,3.7636,3.7627,3.7619,3.7599,3.7702,3.7702,3.7782,3.7783,3.7784]}]]